Regional Weather Roundup
Issued by NWS Albany, NY

Home | Current Version | Previous Version | Text Only | Print | Product List | Glossary On
Versions: 1 2 3 4 5 6 7 8 9 10 11 12 13 14 15 16 17 18 19 20 21 22 23 24 25 26 27 28 29 30 31 32 33 34 35 36 37 38 39 40 41 42 43 44 45 46 47 48 49 50
000
ASUS41 KALY 290710
RWRALY

NEW YORK STATE HOURLY WEATHER ROUNDUP
NATIONAL WEATHER SERVICE ALBANY NY
300 AM EDT FRI JUL 29 2016

NOTE: "FAIR" INDICATES FEW OR NO CLOUDS BELOW 12,000 FEET WITH NO
SIGNIFICANT WEATHER AND/OR NO OBSTRUCTIONS TO VISIBILITY.

NYZ032-033-038>043-046>054-057>066-NYZ062>081-082-084-290800-
EAST


CITY           SKY/WX    TMP DP  RH WIND       PRES   REMARKS
ALBANY         TSTM      71  65  81 SE3       29.89S
GLENS FALLS    CLOUDY    69  65  86 CALM      29.89S
POUGHKEEPSIE   LGT RAIN  75  71  87 CALM      29.86S FOG
NEWBURGH       DRIZZLE   72  72 100 CALM      29.89S FOG
MONTGOMERY     LGT RAIN  72  71  97 CALM      29.88R FOG
WHITE PLAINS   MOCLDY    74  70  87 VRB3      29.85F
ISLIP          CLOUDY    75  73  93 N3        29.84F
NEW YORK CITY  LGT RAIN  77  73  87 E5        29.83F
CENTRAL PARK   CLOUDY    75  72  90 VRB3      29.87F FOG
$$

NYZ005>009-017-018-044>046-055-056-290800-
CENTRAL


CITY           SKY/WX    TMP DP  RH WIND       PRES   REMARKS
FULTON         CLOUDY    69  65  86 CALM      29.89S FOG
SYRACUSE       CLOUDY    68  66  93 CALM      29.87F
ROME           CLOUDY    67  65  93 CALM      29.90R
ELMIRA         CLOUDY    69  60  73 CALM      29.90R
BINGHAMTON     CLOUDY    68  65  90 CALM      29.92S
MONTICELLO     CLOUDY    66  64  94 NW3       29.94R
$$

NYZ026>034-041>043-087-290800-
NORTH


CITY           SKY/WX    TMP DP  RH WIND       PRES   REMARKS
WATERTOWN      CLOUDY    68  66  93 NE6       29.89S
FORT DRUM      NOT AVBL
MASSENA        CLOUDY    59  57  93 CALM      29.92S
SARANAC LAKE   CLOUDY    60  59  96 CALM      29.95R FOG
PLATTSBURGH    CLOUDY    67  65  93 W5        29.90R
$$

NYZ001>004-010>016-019>021-085-290800-
WEST


CITY           SKY/WX    TMP DP  RH WIND       PRES   REMARKS
NIAGARA FALLS  CLEAR     72  63  73 N6        29.90S
BUFFALO        PTCLDY    70  63  78 NW3       29.91R
DUNKIRK        CLEAR     67  64  90 S3        29.91S
JAMESTOWN      MOCLDY    64  63  94 NE3       29.95S
WELLSVILLE     PTCLDY    66  65  96 CALM      29.98S
ROCHESTER      CLOUDY    68  64  87 SW3       29.91R
PENN YAN       CLOUDY    66  61  84 S3        29.92R
$$

             KEY
       WCI = WIND CHILL INDEX
       VSB = VISIBILITY
       HX  = HEAT INDEX
$$



USA.gov is the U.S. government's official web portal to all federal, state and local government web resources and services.